Location: Airlie Beach - Cannonvale QLD, Australia
(20.2768°S, 148.7558°E)
Time: 16:14:54
(UTC+10:00)

Tiangong - Visible Passes

Search period start: 19 May 2026 00:00
Search period end: 29 May 2026 00:00
Orbit: 381 x 391 km, 41.5° (Epoch: 18 May)

Date Brightness Start Highest point End Pass type
(mag) Time Alt. Az. Time Alt. Az. Time Alt. Az.
21 May 0.9 05:23:17 10° N 05:25:26 17° NE 05:27:37 10° E visible
22 May -2.2 05:59:37 10° WNW 06:02:46 70° SW 06:05:56 10° SE visible
23 May -1.0 05:02:23 30° N 05:03:27 43° NE 05:06:30 10° ESE visible
24 May -1.1 05:39:33 20° WSW 05:40:52 28° SW 05:43:41 10° SSE visible
25 May 0.6 04:44:04 14° SE 04:44:04 14° SE 04:44:37 10° SE visible
26 May 0.5 05:20:32 11° S 05:20:32 11° S 05:20:48 10° S visible
